Regional Weather Roundup
Issued by NWS

Home | Current Version | Previous Version | Text Only | Print | Product List | Glossary Off
Versions: 1 2 3 4 5 6 7 8 9 10 11 12 13 14 15 16 17 18 19 20 21 22 23 24 25 26 27 28 29 30 31 32 33 34 35 36 37 38 39 40 41 42 43 44 45 46 47 48

000
ASUS45 KBOU 272207
RWRCO

WEATHER ROUNDUP FOR COLORADO
NATIONAL WEATHER SERVICE DENVER/BOULDER CO
300 PM MST SAT DEC 27 2014

NOTE: "FAIR" INDICATES FEW OR NO CLOUDS BELOW 12000 FEET WITH NO
SIGNIFICANT WEATHER AND/OR OBSTRUCTIONS TO VISIBILITY.

COZ001>005-013-030-031-272300-
...NORTHWEST COLORADO...

CITY           SKY/WX    TMP DP  RH WIND       PRES   REMARKS
CRAIG          SUNNY     17   9  70 E3        30.21F
HAYDEN         SUNNY     14   7  73 CALM      30.20S
MEEKER         SUNNY     17   7  64 E3        30.20S
MOUNT WERNER   NOT AVBL
STEAMBOAT SPGS SUNNY     15   6  67 CALM      30.18S
WALDEN         MOSUNNY   12   0  57 S13       30.06F WCI  -3
$$

COZ006>008-011-272300-
...WEST CENTRAL VALLEYS...

CITY           SKY/WX    TMP DP  RH WIND       PRES   REMARKS
GRAND JUNCTION SUNNY     25  12  58 NW6       30.28R WCI  18
MONTROSE       SUNNY     25  10  53 CALM      30.24F
EAGLE          MOSUNNY   27   9  46 SW9       30.20R WCI  17
RIFLE          SUNNY     24   4  42 SW6       30.24S WCI  17
DELTA          SUNNY     32  11  41 E5        30.26S WCI  27
NUCLA          SUNNY     30   9  40 W3        30.25S
$$

COZ017>023-064>068-272300-
...SOUTHWEST COLORADO...

CITY           SKY/WX    TMP DP  RH WIND       PRES   REMARKS
DURANGO        MOSUNNY   23  11  60 S6        30.17S WCI  16
CORTEZ         SUNNY     31   7  36 W12       30.20S WCI  22
PAGOSA SPRINGS SUNNY     22  13  67 SW3       30.14R
TELLURIDE      SUNNY     18   7  60 W8        30.10S WCI   8
WOLF CREEK PAS CLOUDY     5   3  92 MISG      29.99R
$$

COZ009-010-012-014-032>034-037-058>063-272300-
...CENTRAL COLORADO...

CITY           SKY/WX    TMP DP  RH WIND       PRES   REMARKS
ASPEN          SUNNY     17   3  54 NW3       30.11S
BUENA VISTA    SUNNY     19   7  58 S3        30.03S
COPPER MTN     SUNNY      5  -2  72 W18G28    29.93R WCI -15
BERTHOUD PASS  CLOUDY    -6 -13  71 MISG      29.86F
COTTONWOOD PAS SUNNY     21   0  39 W6        29.98R WCI  14
GUNNISON       SUNNY     10  -6  48 NE7       30.17S WCI   0
KREMMLING      CLOUDY    16   5  62 CALM      30.16S
LEADVILLE      SUNNY     10  -5  50 NW17      29.98S WCI  -8
MONARCH PASS   CLOUDY     0  -4  85 MISG      30.01S
SALIDA         SUNNY     24   5  45 SW17G26   30.12  WCI  10
SUNLIGHT       LGT SNOW N/A N/A N/A CALM      30.04R
WILKERSON PASS SUNNY      9  -2  61 W12G20    29.92R WCI  -6
$$

COZ069>075-272300-
...SAN LUIS VALLEY/SANGRE DE CRISTO MOUNTAINS...

CITY           SKY/WX    TMP DP  RH WIND       PRES   REMARKS
ALAMOSA        SUNNY     22   5  48 VRB3      30.10F
LA VETA PASS   NOT AVBL
SAGUACHE       SUNNY     12   3  67 SE5       30.12S WCI   4
$$

COZ035-036-038>040-272300-
...NORTHERN COLORADO FRONT RANGE...

CITY           SKY/WX    TMP DP  RH WIND       PRES   REMARKS
DENVER INTL AP MOSUNNY   26  14  60 SE12      30.03F WCI  16
DMNS CITY PARK   N/A     31   7  35 SE7       30.04S WCI  24
AURORA         MOSUNNY   27  15  60 SE9       30.04F WCI  18
FRONT RANGE AP MOSUNNY   28  18  64 SE12      30.04F WCI  18
ERIE MUNI ARPT   N/A     29  11  47 SE7       30.04S WCI  22
BOULDER MUN AP SUNNY     30  10  43 SE5       30.03R WCI  25
CENTENNIAL     MOSUNNY   26  11  52 SE6       30.02F WCI  19
BROOMFIELD     MOSUNNY   28  10  47 SE7       30.03F WCI  21
FORT COLLINS   SUNNY     19   9  63 NE5       30.07S WCI  13
LONGMONT       SUNNY     35  11  37 SE3       30.06S
$$

COZ041-046-047-076>085-087-088-272300-
...PIKES PEAK/PALMER DIVIDE AND SOUTHERN FOOTHILLS...

CITY           SKY/WX    TMP DP  RH WIND       PRES   REMARKS
COLO. SPRINGS  MOSUNNY   28   7  41 S9        30.05F WCI  19
A. F. ACADEMY  SUNNY     25   7  47 S8        30.03S WCI  16
ELLICOTT       NOT AVBL
FALCON         SUNNY     25   5  41 S9        30.03F WCI  16
FORT CARSON    SUNNY     29   9  44 S10       30.04F WCI  19
LIMON          SUNNY     25   9  50 S6        30.08F WCI  18
MONUMENT HILL  SUNNY     23  10  58 S10       29.99S WCI  12
TRINIDAD       SUNNY     18   9  68 S7        30.10F WCI   9
$$

COZ042>045-048>051-090-091-272300-
...NORTHEAST COLORADO...

CITY           SKY/WX    TMP DP  RH WIND       PRES   REMARKS
GREELEY ARPT   SUNNY     16   7  67 NE5       30.07S WCI   9
AKRON          SUNNY     23  11  60 S7        30.09S WCI  15
BURLINGTON     SUNNY     25  11  55 W6        30.14F WCI  18
WRAY           SUNNY     30  14  51 SW5       30.15S WCI  25
STERLING       SUNNY     21  12  68 CALM      30.11F
HOLYOKE        SUNNY     27  14  59 SW6       30.14S WCI  20
FORT MORGAN    SUNNY     19  10  69 CALM      30.10S
$$

COZ086-089-092>099-272300-
...SOUTHEAST COLORADO...

CITY           SKY/WX    TMP DP  RH WIND       PRES   REMARKS
PUEBLO         SUNNY     30  11  45 S9        30.10F WCI  22
LA JUNTA       SUNNY     30  16  56 SW8       30.15F WCI  22
LAMAR          SUNNY     31  14  49 W9        30.18S WCI  23
SPRINGFIELD      N/A     31  14  49 W5        30.16S WCI  26
$$


USA.gov is the U.S. government's official web portal to all federal, state and local government web resources and services.